www.pogodaiklimat.ru

Погода и климат >> Архив погоды >> Мексика >> Пуэрто-Анхель


ПОГОДА в Пуэрто-Анхеле

  • Прогноз погоды в Пуэрто-Анхеле
  • Монитор погоды в Пуэрто-Анхеле

АРХИВ ПОГОДЫ в Пуэрто-Анхеле

Время (UTC), дата Ветер
(напр.,м/с)
 
Видим.   Явления Облачность Т
(С)
Тd
(С)
f
(%)
Тe
(С)
Тes
(С)
Комфортность P
(гПа)
Po
(гПа)
Тmin
(С)
Tmax
(С)
R
(мм)
R24
(мм)
S
(см)
12 11.08 С 3 20 км 4/0
[Ac trans Cs]
+24.8 +21.4 81 +31 +31 очень
душно
1012.5 1007.6 +24.0 +35.0
15 11.08 Ю 2 20 км 3/0
[Ac trans Cs]
+29.6 +25.0 76 +42 +51 опасность
перегрева
1013.0 1008.0
18 11.08 Ю 3 20 км 3/1 600 м
[Cu med, cong Ac trans]
+32.6 +26.0 68 +48 +62 опасность
перегрева
1012.7 1007.8 +24.0 +33.0
12 12.08 СЗ 2 30 км 9/5 600 м
[Cb calv Ac und Cc]
+34.0 0.0 11 +38 +38 очень
душно
1013.2 1008.5 +25.8 +34.0
15 12.08 ЮЗ 2 30 км 1/1 600 м
[Cu med, cong]
+29.0 +25.0 79 +42 +50 опасность
перегрева
1013.0 1008.1
18 12.08 З 2 30 км 1/1 600 м
[Cu med, cong]
+32.8 +26.2 68 +49 +69 опасность
перегрева
1012.3 1007.4 +25.8 +34.0
21 12.08 ЮЗ 2 30 км 1/1 600 м
[Cu med, cong]
+33.0 +26.1 67 +49 +62 опасность
перегрева
1011.8 1006.9
00 13.08 ЮЗ 2 30 км 1/1 600 м
[Cu med, cong]
+32.2 +27.0 74 +50 +51 опасность
перегрева
1011.6 1006.8 +25.8 +35.6
03 13.08 СЗ 1 30 км 3/1 600 м
[Cu med, cong Ac trans]
+29.8 +25.5 78 +44 +44 опасность
перегрева
1012.2 1007.8
06 13.08 С 1 30 км 5/1 600 м
[Cu med, cong Cs]
+28.4 +25.2 83 +41 +41 опасность
перегрева
1013.3 1008.4 +25.8 +35.6
09 13.08 С 1 30 км 6/1 600 м
[Cu med, cong Cs]
+27.4 +25.5 89 +40 +40 очень
душно
1012.4 1007.5
12 13.08 В 1 30 км 5/1 600 м
[Cu med, cong Cs]
+26.0 +23.8 88 +36 +36 очень
душно
1011.6 1006.7 +25.0 +35.6
15 13.08 ЮЗ 2 30 км 4/1 600 м
[Cu med, cong Cs]
+30.6 +25.0 72 +44 +52 опасность
перегрева
1011.6 1006.7
18 13.08 С 3 30 км 5/1 600 м
[Cu med, cong Cs]
+33.8 +25.9 63 +49 +64 опасность
перегрева
1011.2 1006.3 +25.0 +34.0
21 13.08 ЮЗ 4 30 км 5/1 600 м
[Cu med, cong Cs]
+34.4 +26.5 64 +52 +59 опасность
перегрева
1010.5 1005.6
00 14.08 ЮЗ 3 30 км 5/1 600 м
[Cu med, cong Ac As Cs]
+31.8 +26.3 73 +48 +49 опасность
перегрева
1010.3 1005.5 +25.0 +35.2
03 14.08 З 2 20 км 6/1 600 м
[Cu med, cong Ac und Cs]
+29.6 +26.2 82 +45 +45 опасность
перегрева
1012.0 1007.2
06 14.08 С 1 20 км 6/3 600 м
[Cu med, cong Ac und]
+28.8 +26.1 85 +43 +43 опасность
перегрева
1013.0 1008.1 +25.0 +35.2
09 14.08 С 2 20 км 1/0
[Ac trans]
+27.2 +24.5 85 +38 +38 очень
душно
1012.1 1007.2
12 14.08 С 2 20 км 1/0
[Ac und]
+26.4 +23.7 85 +36 +36 очень
душно
1011.9 1007.0 +25.6 +35.2
15 14.08 С 1 30 км 1/1 600 м
[Cu med, cong]
+31.6 +24.6 66 +44 +54 опасность
перегрева
1011.5 1006.6
18 14.08 ЮЗ 2 30 км 4/1 600 м
[Cu med, cong Cs]
+34.0 +26.7 66 +51 +70 опасность
перегрева
1011.3 1006.4 +25.6 +34.2
21 14.08 Ю 2 30 км 4/1 600 м
[Cu med, cong Cs]
+33.8 +26.4 65 +50 +62 опасность
перегрева
1010.6 1005.7
00 15.08 ЮЗ 3 30 км 6/1 600 м
[Cu med, cong Ac As Cs]
+32.6 +26.3 70 +49 +50 опасность
перегрева
1010.2 1005.3 +25.6 +35.0
03 15.08 СЗ 1 30 км 9/3 600 м
[Cu med, cong Ac und]
+30.2 +26.5 81 +47 +47 опасность
перегрева
1010.9 1006.1
06 15.08 С 1 30 км 5/4 600 м
[Cb cap Ac trans]
+28.0 +25.3 85 +41 +41 опасность
перегрева
1012.2 1007.4 +25.6 +35.0
09 15.08 В 1 30 км 10/4 600 м
[Cb cap Ac und Cs]
+26.6 +24.4 88 +37 +37 очень
душно
1011.8 1007.0
12 15.08 С 1 30 км 8/1 600 м
[Cu med, cong Ac trans Cs]
+37.0 +24.3 48 +49 +49 опасность
перегрева
1012.0 1007.0 +25.4 +35.0
15 15.08 З 2 30 км 8/1 600 м
[Cu med, cong Cs]
+30.4 +25.9 77 +45 +52 опасность
перегрева
1014.0 1009.0
18 15.08 З 2 30 км 1/1 600 м
[Cu med, cong]
+33.2 +26.6 68 +50 +70 опасность
перегрева
1014.0 1009.1 +25.4 +35.0
21 15.08 ЮЗ 2 30 км 5/3 600 м
[Cb cap Cs]
+34.0 +26.1 64 +50 +60 опасность
перегрева
1012.2 1007.3
00 16.08 СЗ 2 30 км 8/3 600 м
[Cb cap Ac As Cs]
+30.0 +22.1 63 +39 +39 очень
душно
1012.1 1007.3 +25.4 +36.0
03 16.08 С 2 20 км 9/4 600 м
[Cb cap Ac und Cs]
+28.2 +23.5 76 +38 +38 очень
душно
1013.7 1008.8
06 16.08 С 2 20 км 8/3 600 м
[Cb cap Ac und Cs]
+27.6 +23.5 78 +37 +37 очень
душно
1014.8 1009.9 +25.4 +36.0
09 16.08 С 2 20 км 8/4 600 м
[Cb cap Ac und]
+27.4 +22.1 73 +36 +36 очень
душно
1013.9 1009.0
12 16.08 В 2 20 км 10/8 600 м
[Cb cap As op]
+27.2 +24.8 87 +39 +39 очень
душно
1014.2 1009.2 +26.0 +36.0
15 16.08 СВ 1 30 км {дождь, морось} 10/3 600 м
[Cu med, cong Ac und]
+26.0 +24.6 92 +37 +39 очень
душно
1014.7 1009.8 7
18 16.08 Ю 1 30 км 8/1 600 м
[Cu med, cong Cs]
+31.0 +25.7 73 +46 +65 опасность
перегрева
1015.5 1010.6 +24.4 +32.6
21 16.08 ЮЗ 2 30 км 8/1 600 м
[Cu med, cong Cs]
+32.0 +25.0 67 +46 +56 опасность
перегрева
1013.2 1008.3
00 17.08 З 2 30 км 8/1 600 м
[Cu med, cong Cs]
+30.6 +25.3 73 +44 +45 опасность
перегрева
1012.4 1007.6 +24.4 +34.2
03 17.08 С 1 30 км ясно +28.2 +25.5 85 +41 +41 опасность
перегрева
1013.5 1008.2
06 17.08 С 1 30 км ясно +27.0 +24.6 87 +38 +38 очень
душно
1014.0 1009.1 +24.4 +34.2
09 17.08 С 2 30 км 8/1 600 м
[Cu med, cong Cs]
+27.4 +25.0 87 +39 +39 очень
душно
1014.0 1009.1
12 17.08 С 1 30 км 9/1 600 м
[Cu med, cong Ac As Cs]
+26.2 +24.5 90 +37 +37 очень
душно
1013.6 1008.6 +25.0 +34.2
15 17.08 З 2 30 км 9/1 600 м
[Cu med, cong Ac As Cs]
+29.0 +25.0 79 +42 +46 опасность
перегрева
1013.6 1008.7
18 17.08 ЮЗ 2 30 км 8/3 600 м
[Cb cap Ac As Cs]
+30.8 +25.2 72 +45 +54 опасность
перегрева
1013.9 1009.0 +25.0 +33.0
21 17.08 н/о +25.6 1012.1 1007.2
00 18.08 З 3 30 км 1/1 600 м
[Cu med, cong]
+31.4 +25.5 71 +46 +46 опасность
перегрева
1009.8 1005.0 +25.0 +35.0
03 18.08 З 2 20 км 8/0
[Cs]
+29.0 +25.2 80 +42 +42 опасность
перегрева
1010.4 1005.6
06 18.08 СЗ 2 20 км 9/3 600 м
[Cu med, cong Ac und Cs]
+28.8 +25.3 81 +42 +42 опасность
перегрева
1012.1 1007.3 +25.0 +35.0

 

Местоположение метеостанции Пуэрто-Анхель (Мексика): широта 15.68 долгота -96.48 высота над уровнем моря 46 м.

В архиве по умолчанию представлена погода в Пуэрто-Анхеле за последнюю неделю. Архивные данные за месяц целиком и за предыдущие месяцы, начиная с января 2011 года, Вы можете получить, выбрав интересующий диапазон дат из раскрывающегося списка и нажав кнопку "Ввод!".


*Определитесь, кто Вы:
робот инопланетянин человек

Внимание! Время в таблицах - всемирное. Для получения местного времени необходимо прибавить поправку, которая равна -6 ч.

Смотрите также архив погоды в соседних городах и на ближайших метеорологических станциях:

Погода в Салина-Крусе (Мексика) (149 км)
Погода в Оахаке (Мексика) (154 км)
Погода в Уахуапан-де-Леоне (Мексика) (273 км)
Погода в Арриаге (Мексика) (283 км)
Погода в Коацакоалькосе (Мексика) (350 км)
Погода в Оризабе (Мексика) (359 км)
Погода в Кордове (Мексика) (361 км)
Погода в Тустла-Гутьерресе (Мексика) (377 км)
Погода в Чильпансинго (Мексика) (383 км)
Погода в Веракрусе (Мексика) (388 км)

Пояснения к столбцам:

Ветер - указаны скорость ветра в м/с - средняя за 10 мин, порывы в срок и между сроками (в фигурных скобках) и направление, откуда дует ветер: С - северный, СВ - северо-восточный, В - восточный, ЮВ - юго-восточный, Ю - южный, ЮЗ - юго-западный, З - западный, СЗ - северо-западный.
Видимость - горизонтальная дальность видимости в метрах или километрах. При видимости от 1 до 10 км при отсутствии осадков обычно наблюдается дымка, при ухудшении видимости до 1 км и менее - туман. В сухую погоду видимость может ухудшаться дымом, пылью или мглою.
Явления - указаны атмосферные явления, наблюдавшиеся в срок или в последний час перед сроком; фигурными скобками обозначены явления, наблюдавшиеся между сроками (за 1-3 часа до срока); квадратными скобками обозначены град или гололедные отложения с указанием их диаметра в мм.
Облачность - указаны через наклонную черту общая и нижняя облачность в баллах и высота нижней границы облаков в метрах; квадратными скобками обозначены формы облаков: Ci - перистые, Cs - перисто-слоистые, Cc - перисто-кучевые, Ac - высококучевые, As - высокослоистые, Sc - слоисто-кучевые, Ns - слоисто-дождевые, Cu - кучевые, Cb - кучево-дождевые. Подробнее классификацию облаков см. в Атласе облаков (PDF).
T - Температура воздуха - температура, измеренная на высоте 2 м над землей.
Td - Температура точки росы - температура, при понижении до которой содержащийся в воздухе водяной пар достигнет насыщения.
f - Относительная влажность воздуха - влажноcть воздуха, измеренная на высоте 2 м над землей.
Te - Эффективная температура - температура, которую ощущает одетый по сезону человек в тени. Характеристика душности погоды. При расчете учитывается влияние влажности воздуха и скорости ветра на теплоощущения человека.
Tes - Эффективная температура на солнце - температура, которую ощущает человек, с поправкой на солнечный нагрев. Характеристика знойности погоды. Зависит от высоты солнца над горизонтом, облачности и скорости ветра. Ночью, в пасмурную погоду, а также при ветре 12 м/с и более поправка равна нулю.
P - Атмосферное давление - приведенное к уровню моря атмосферное давление.
Po - Атмосферное давление - измеренное на уровне метеостанции атмосферное давление.
Tmin - Минимальная температура - минимум температуры воздуха на высоте 2 м над землей.
Tmax - Максимальная температура - максимум температуры воздуха на высоте 2 м над землей.
R - Количество осадков - Количество выпавших осадков за период времени, мм. При наведении курсора мыши на число - период времени, за который выпало указанное количество осадков.
R24 - Количество осадков - Количество выпавших осадков за 24 часа, мм.
S - Снежный покров - Высота снежного покрова, см. При наведении курсора мыши на число - состояние снежного покрова и степень покрытия местности в баллах.